SES-10 (42432 NORAD) Tracking and Keplerian Element Data

This shows tracking and keplerian element data for the satellite.

Feedback or suggestion? Click here.




ElementValue
Catalog42432
NameSES-10
Epoch Orbit2009
Epoch Day270.01993838
Epoch Year2022
RAAN178.681
Inclination0.0155
Eccentricity0.0002641
Argument of Perigee8.8111
Mean Anonmoly118.5809
Mean Motion1.00268996
Decay Rate-2.69E-06
L11 42432U 17017A 22270.01993838 -.00000269 00000+0 00000+0 0 9991
L22 42432 0.0155 178.6810 0002641 8.8111 118.5809 1.00268996 20095

Live tracking and technical data element details for SES-10 (NORAD 42432). SES-10 can be tracked NOW for your location showing map with azimuth and elevation plus other details from your city location.

Track the satellite on the map from your city or location and see movement details for azimuth, elevation, latitude, longitude, range, height, and movement on the map or in text.







IsCatalogInMostPopularTable: catalog: 42432, numindb: 658
Update: records affected: 1



GetName: 42432 SES-10

Hit Count: updated at: Fri, 30 Sep 2022 03:34:25 GMT